When you browse on this site, cookies collect data to enhance your experience and personalize the content and advertising you see.
Visit our Privacy Policy to learn more. By continuing to use the site, you agree to this use of cookies and data.
  • In Portugal
  • List of Countries
  • For 7 days
  • Water Temperature
  • Weather Map
  • Weather Widgets
  • user-avatar
    Login

    Hourly Weather Bansko

    Today, 18 November, Monday

    Time Temperature Precipitation Wind Pressure Humidity
    00:00 +12°C° 0 mm 2 mps 721 mmHg 86%
    01:00 +13°C° 0 mm 2 mps 720 mmHg 86%
    02:00 +13°C° 0 mm 2 mps 721 mmHg 84%
    03:00 +13°C° 0.1 mm 2 mps 720 mmHg 85%
    04:00 +13°C° 0.1 mm 2 mps 720 mmHg 87%
    05:00 +13°C° 0.1 mm 2 mps 720 mmHg 88%
    06:00 +13°C° 0 mm 2 mps 720 mmHg 89%
    07:00 +13°C° 0 mm 2 mps 720 mmHg 90%
    08:00 +13°C° 0 mm 2 mps 721 mmHg 92%
    09:00 +14°C° 0.2 mm 2 mps 721 mmHg 85%
    10:00 +16°C° 0.2 mm 2 mps 721 mmHg 78%
    11:00 +17°C° 0.2 mm 2 mps 721 mmHg 71%
    12:00 +16°C° 1.2 mm 2 mps 721 mmHg 75%
    13:00 +15°C° 1.2 mm 2 mps 721 mmHg 79%
    14:00 +14°C° 0 mm 3 mps 721 mmHg 79%
    15:00 +14°C° 0.3 mm 2 mps 721 mmHg 80%
    16:00 +13°C° 0.3 mm 1 mps 721 mmHg 81%
    17:00 +13°C° 0.3 mm 1 mps 721 mmHg 82%
    18:00 +12°C° 0 mm 1 mps 722 mmHg 82%
    19:00 +12°C° 0 mm 1 mps 722 mmHg 83%
    20:00 +11°C° 0 mm 1 mps 723 mmHg 84%
    21:00 +11°C° 0 mm 1 mps 723 mmHg 84%
    22:00 +11°C° 0 mm 1 mps 723 mmHg 85%
    23:00 +11°C° 0 mm 1 mps 724 mmHg 85%

    Tomorrow, 19 November, Tuesday

    Time Temperature Precipitation Wind Pressure Humidity
    00:00 +11°C° 0 mm 1 mps 724 mmHg 84%
    01:00 +10°C° 0 mm 1 mps 724 mmHg 84%
    02:00 +10°C° 0 mm 1 mps 724 mmHg 83%
    03:00 +10°C° 0 mm 1 mps 724 mmHg 82%
    04:00 +10°C° 0 mm 1 mps 724 mmHg 81%
    05:00 +10°C° 0 mm 1 mps 724 mmHg 80%
    06:00 +10°C° 0 mm 1 mps 724 mmHg 79%
    07:00 +10°C° 0 mm 1 mps 724 mmHg 79%
    08:00 +10°C° 0 mm 1 mps 725 mmHg 78%
    09:00 +12°C° 0 mm 1 mps 725 mmHg 74%
    10:00 +14°C° 0 mm 1 mps 725 mmHg 69%
    11:00 +16°C° 0 mm 1 mps 725 mmHg 65%
    12:00 +16°C° 0 mm 1 mps 725 mmHg 63%
    13:00 +18°C° 0 mm 1 mps 724 mmHg 62%
    14:00 +19°C° 0 mm 1 mps 724 mmHg 60%
    15:00 +18°C° 0 mm 1 mps 724 mmHg 68%
    16:00 +15°C° 0 mm 1 mps 723 mmHg 75%
    17:00 +14°C° 0 mm 1 mps 723 mmHg 83%
    18:00 +13°C° 0 mm 1 mps 723 mmHg 84%
    19:00 +13°C° 0 mm 1 mps 723 mmHg 85%
    20:00 +12°C° 0 mm 1 mps 723 mmHg 87%
    21:00 +12°C° 0 mm 2 mps 723 mmHg 87%
    22:00 +12°C° 0 mm 2 mps 723 mmHg 88%
    23:00 +12°C° 0 mm 2 mps 723 mmHg 88%

    Day after tomorrow, 20 November, Wednesday

    Time Temperature Precipitation Wind Pressure Humidity
    00:00 +12°C° 0 mm 2 mps 722 mmHg 88%
    01:00 +12°C° 0 mm 1 mps 722 mmHg 88%
    02:00 +12°C° 0 mm 1 mps 722 mmHg 89%
    03:00 +12°C° 0 mm 2 mps 721 mmHg 86%
    04:00 +12°C° 0 mm 2 mps 721 mmHg 83%
    05:00 +10°C° 0 mm 2 mps 720 mmHg 80%
    06:00 +10°C° 0 mm 2 mps 720 mmHg 80%
    07:00 +10°C° 0 mm 2 mps 720 mmHg 79%
    08:00 +10°C° 0 mm 2 mps 720 mmHg 79%
    09:00 +12°C° 0.7 mm 2 mps 720 mmHg 80%
    10:00 +12°C° 0.7 mm 2 mps 720 mmHg 82%
    11:00 +13°C° 0.7 mm 2 mps 720 mmHg 84%
    12:00 +12°C° 3.7 mm 2 mps 720 mmHg 87%
    13:00 +12°C° 3.7 mm 2 mps 719 mmHg 90%
    14:00 +10°C° 3.7 mm 2 mps 719 mmHg 94%
    15:00 +10°C° 0.8 mm 2 mps 719 mmHg 93%
    16:00 +11°C° 0.8 mm 1 mps 719 mmHg 92%
    17:00 +11°C° 0.8 mm 1 mps 719 mmHg 91%
    18:00 +11°C° 0 mm 1 mps 719 mmHg 90%
    19:00 +11°C° 0 mm 1 mps 719 mmHg 90%
    20:00 +10°C° 0 mm 1 mps 720 mmHg 90%
    21:00 +10°C° 0 mm 1 mps 720 mmHg 89%
    22:00 +10°C° 0 mm 1 mps 720 mmHg 89%
    23:00 +10°C° 0 mm 1 mps 720 mmHg 88%

    21 November, Thursday

    Time Temperature Precipitation Wind Pressure Humidity
    00:00 +10°C° 0 mm 1 mps 720 mmHg 87%
    01:00 +10°C° 0 mm 1 mps 720 mmHg 86%
    02:00 +9°C° 0 mm 1 mps 720 mmHg 85%
    03:00 +9°C° 0 mm 1 mps 720 mmHg 84%
    04:00 +9°C° 0 mm 1 mps 720 mmHg 83%
    05:00 +9°C° 0 mm 1 mps 720 mmHg 82%
    06:00 +9°C° 0 mm 1 mps 720 mmHg 81%
    07:00 +9°C° 0 mm 1 mps 720 mmHg 80%
    08:00 +9°C° 0 mm 1 mps 720 mmHg 79%
    09:00 +11°C° 0 mm 1 mps 720 mmHg 74%
    10:00 +12°C° 0 mm 1 mps 721 mmHg 70%
    11:00 +14°C° 0 mm 1 mps 721 mmHg 65%
    12:00 +15°C° 0 mm 1 mps 720 mmHg 64%
    13:00 +15°C° 0 mm 1 mps 720 mmHg 62%
    14:00 +15°C° 0 mm 1 mps 720 mmHg 60%
    15:00 +14°C° 0 mm 1 mps 720 mmHg 66%
    16:00 +13°C° 0 mm 1 mps 720 mmHg 72%
    17:00 +12°C° 0 mm 1 mps 719 mmHg 78%
    18:00 +11°C° 0 mm 1 mps 720 mmHg 79%
    19:00 +11°C° 0 mm 1 mps 720 mmHg 79%
    20:00 +11°C° 0 mm 1 mps 720 mmHg 80%
    21:00 +11°C° 0 mm 1 mps 720 mmHg 81%
    22:00 +10°C° 0 mm 1 mps 720 mmHg 83%
    23:00 +10°C° 0 mm 1 mps 720 mmHg 84%

    22 November, Friday

    Time Temperature Precipitation Wind Pressure Humidity
    00:00 +10°C° 0 mm 1 mps 720 mmHg 85%
    01:00 +10°C° 0 mm 1 mps 720 mmHg 87%
    02:00 +11°C° 0 mm 1 mps 720 mmHg 88%
    03:00 +10°C° 0 mm 1 mps 720 mmHg 88%
    04:00 +10°C° 0 mm 1 mps 720 mmHg 89%
    05:00 +10°C° 0 mm 1 mps 720 mmHg 89%
    06:00 +11°C° 0.5 mm 1 mps 720 mmHg 90%
    07:00 +11°C° 0.5 mm 1 mps 720 mmHg 91%
    08:00 +11°C° 0.5 mm 1 mps 720 mmHg 92%
    09:00 +11°C° 2.6 mm 1 mps 720 mmHg 94%
    10:00 +11°C° 2.6 mm 1 mps 720 mmHg 95%
    11:00 +11°C° 2.6 mm 1 mps 720 mmHg 97%
    12:00 +11°C° 3.1 mm 1 mps 720 mmHg 97%
    13:00 +11°C° 3.1 mm 1 mps 720 mmHg 96%
    14:00 +11°C° 3.1 mm 1 mps 720 mmHg 96%
    15:00 +11°C° 2.3 mm 1 mps 720 mmHg 96%
    16:00 +10°C° 2.3 mm 1 mps 720 mmHg 95%
    17:00 +10°C° 2.3 mm 1 mps 720 mmHg 95%
    18:00 +10°C° 0.7 mm 1 mps 720 mmHg 95%
    19:00 +10°C° 0.7 mm 1 mps 720 mmHg 95%
    20:00 +10°C° 0.7 mm 1 mps 720 mmHg 95%
    21:00 +10°C° 0.4 mm 1 mps 721 mmHg 95%
    22:00 +10°C° 0.4 mm 1 mps 721 mmHg 95%
    23:00 +10°C° 0.4 mm 1 mps 721 mmHg 95%

    23 November, Saturday

    Time Temperature Precipitation Wind Pressure Humidity
    00:00 +9°C° 0.1 mm 0 mps 721 mmHg 95%
    01:00 +9°C° 0.1 mm 0 mps 721 mmHg 95%
    02:00 +9°C° 0.1 mm 0 mps 721 mmHg 95%
    03:00 +9°C° 0 mm 0 mps 721 mmHg 95%
    04:00 +9°C° 0 mm 0 mps 721 mmHg 94%
    05:00 +8°C° 0 mm 0 mps 721 mmHg 94%
    06:00 +8°C° 0 mm 0 mps 721 mmHg 94%
    07:00 +9°C° 0 mm 0 mps 721 mmHg 94%
    08:00 +9°C° 0 mm 0 mps 721 mmHg 94%
    09:00 +10°C° 0 mm 0 mps 722 mmHg 91%
    10:00 +10°C° 0 mm 0 mps 722 mmHg 88%
    11:00 +11°C° 0 mm 0 mps 722 mmHg 85%
    12:00 +13°C° 0.1 mm 1 mps 721 mmHg 83%
    13:00 +13°C° 0.1 mm 1 mps 721 mmHg 81%
    14:00 +13°C° 0.1 mm 1 mps 720 mmHg 79%
    15:00 +13°C° 0.1 mm 1 mps 720 mmHg 83%
    16:00 +12°C° 0.1 mm 1 mps 720 mmHg 87%
    17:00 +10°C° 0.1 mm 0 mps 720 mmHg 90%
    18:00 +10°C° 0 mm 1 mps 720 mmHg 91%
    19:00 +10°C° 0 mm 1 mps 720 mmHg 91%
    20:00 +10°C° 0 mm 1 mps 720 mmHg 91%
    21:00 +9°C° 0 mm 1 mps 720 mmHg 91%
    22:00 +9°C° 0 mm 1 mps 720 mmHg 91%
    23:00 +9°C° 0 mm 1 mps 720 mmHg 91%
    Show more